Location: Alfortville
(48.8058°N, 2.4204°E)
Time: 02:51:49
(UTC+00:00)

Cosmos 2219 Rocket - Pass Details

Date: 24 October 2021
Orbit: 826 x 848 km, 71.0° (Epoch: 05 December)

Event Time Altitude Azimuth Distance (km) Brightness Sun altitude
Rises 18:11:46 0° 159° (SSE) 3,353 5.1 -15.1°
Reaches altitude 10° 18:14:53 10° 142° (SE) 2,427 4.2 -15.6°
Enters shadow 18:15:40 13° 135° (SE) 2,242 4.0 -15.8°
